Weather in Amoudara

Greece     35°20′11″N   25°04′53″E
temp.,
°C
wind,
m/s
gust,
m/s
humid.,
%
clouds,
%
prec.,
mm/h
press.,
hPa
HPBL,
m
17 april, sat
sat1700:00+15ssw5744100 0.2 1012119
03:00+16ssw5738100 0.2 1010102
06:00+15s684883 0.0 1009103
09:00+20ssw7135185 0.0 1009339
12:00+25ssw9183387 0.0 1010998
15:00+25ssw5103699 0.0 1010729
18:00+23s3443100 0.0 1011204
21:00+22ssw3326100 0.0 101124
18 april, sun
sun1800:00+22sw4426100 0.0 101241
03:00+22sw3330100 0.0 101331
06:00+20sw1141100 0.0 101211
09:00+24sse2341100 0.0 101393
12:00+27ene223123 0.0 1013974
15:00+23nne445399 0.0 1014490
18:00+21nne3551100 0.0 1014351
21:00+18n3460100 0.0 101587
19 april, mon
mon1900:00+17nnw2260100 0.0 101526
03:00+15ne1171100 0.0 101424
06:00+16s1167100 0.0 101225
09:00+16nnw3571100 0.0 1013355
12:00+19ne336520 0.0 1013773
15:00+18n346227 0.0 1012878
18:00+15w3568100 0.0 1012641
21:00+11wnw357510 0.0 1015199
20 april, tue
tue2000:00+9w23816 0.0 101669
03:00+8wsw22760 0.0 101549
06:00+8wsw22640 0.0 101524
09:00+14wnw24420 0.0 1016514
12:00+18nw35280 0.0 10161420
15:00+18nw144311 0.0 10161447
18:00+16wsw245733 0.0 1017917
21:00+10ssw22830 0.0 101833
21 april, wed
wed2100:00+9sw11855 0.0 101915
03:00+9wsw11790 0.0 101813
06:00+9wsw11700 0.0 101813
09:00+14nne014752 0.0 1019307
12:00+18nne34370 0.0 10191126
15:00+19nne44460 0.0 1020974
18:00+16nne325629 0.0 1020455
21:00+12wsw11715 0.0 102112